IW0GZ Weather Reports


Display with metric or nautical units.
time (UTC)temp
F
wind
direction
speed
MPH
gust
MPH
rain 1hr
in
rain 24hr
in
rain mn
in
humidity
%
barometer
mb
20260507114003 71 295 2.0 5.0 0.00 0.27 0.18 64 1015.9
20260507113004 70 266 1.0 5.0 0.00 0.27 0.18 65 1016.0
20260507112003 70 290 1.0 5.0 0.00 0.27 0.18 66 1016.1
20260507111003 70 274 2.0 4.0 0.00 0.27 0.18 67 1016.1
20260507110004 70 207 2.0 4.0 0.00 0.27 0.18 67 1016.1
20260507105003 69 296 1.0 4.0 0.00 0.27 0.18 68 1016.4
20260507104215 69 288 1.0 4.0 0.00 0.27 0.18 68 1016.3
20260507103003 70 273 1.0 4.0 0.00 0.27 0.18 69 1016.4
20260507102003 69 256 2.0 5.0 0.00 0.27 0.18 70 1016.6
20260507101213 69 248 2.0 4.0 0.00 0.27 0.18 70 1016.6
20260507100004 68 254 1.0 5.0 0.00 0.27 0.18 67 1016.8
20260507095004 68 306 2.0 4.0 0.00 0.27 0.18 70 1016.7
20260507094216 68 326 2.0 4.0 0.00 0.27 0.18 71 1016.8
20260507093216 67 60 3.0 6.0 0.00 0.27 0.18 72 1016.7
20260507092004 67 32 2.0 8.0 0.00 0.27 0.18 72 1016.7
20260507091004 68 33 2.0 6.0 0.00 0.27 0.18 73 1016.6
20260507090004 66 18 3.0 5.0 0.00 0.27 0.18 74 1016.6
20260507085003 67 347 3.0 7.0 0.00 0.27 0.18 73 1016.7
20260507084004 68 41 1.0 7.0 0.00 0.27 0.18 71 1016.8
20260507083217 68 12 1.0 4.0 0.00 0.27 0.18 71 1016.8
20260507082004 68 257 1.0 3.0 0.00 0.27 0.18 74 1016.8
20260507081003 66 92 1.0 2.0 0.00 0.27 0.18 75 1017.0
20260507080004 66 60 1.0 3.0 0.00 0.27 0.18 77 1017.0
20260507075003 65 67 2.0 4.0 0.00 0.27 0.18 79 1017.0
20260507074004 64 53 2.0 4.0 0.00 0.27 0.18 81 1016.9
20260507073004 63 29 1.0 5.0 0.00 0.27 0.18 83 1017.0
20260507072214 62 344 1.0 5.0 0.00 0.27 0.18 85 1017.1
20260507071003 61 339 2.0 3.0 0.00 0.27 0.18 89 1017.1
20260507070216 61 341 2.0 4.0 0.00 0.27 0.18 91 1017.0
20260507065004 61 337 1.0 3.0 0.00 0.27 0.18 92 1017.0
20260507064004 61 44 2.0 4.0 0.00 0.27 0.18 95 1016.9
20260507063004 60 44 1.0 4.0 0.00 0.27 0.18 95 1016.8
20260507062003 60 33 1.0 3.0 0.00 0.27 0.18 96 1016.7
20260507061003 59 36 1.0 4.0 0.00 0.27 0.18 96 1016.6
20260507060004 58 66 2.0 4.0 0.00 0.27 0.18 96 1016.7
20260507055217 58 57 2.0 5.0 0.00 0.28 0.18 96 1016.7
20260507054003 57 54 1.0 4.0 0.00 0.29 0.18 96 1016.7
20260507053214 57 64 2.0 3.0 0.00 0.30 0.18 96 1016.6
20260507052004 56 80 2.0 3.0 0.00 0.30 0.18 96 1016.6
20260507051004 56 72 2.0 3.0 0.00 0.30 0.18 96 1016.6
20260507050005 56 62 2.0 3.0 0.00 0.30 0.18 96 1016.4
20260507045213 56 57 2.0 4.0 0.00 0.30 0.18 96 1016.4
20260507044003 56 59 0.0 3.0 0.00 0.30 0.18 96 1016.3
20260507043004 56 0 0.0 0.0 0.00 0.30 0.18 96 1016.6
20260507042004 56 75 0.0 1.0 0.00 0.30 0.18 96 1016.6
20260507041004 56 77 1.0 2.0 0.00 0.30 0.18 96 1016.4
20260507040004 56 301 1.0 3.0 0.00 0.30 0.18 96 1016.3
20260507035213 56 281 1.0 3.0 0.00 0.30 0.18 96 1016.3
20260507034004 56 113 0.0 2.0 0.01 0.30 0.18 96 1016.2
20260507033004 56 64 1.0 2.0 0.01 0.30 0.18 96 1016.3
20260507032003 56 77 0.0 3.0 0.01 0.30 0.18 96 1016.2
20260507031003 56 82 0.0 1.0 0.01 0.30 0.18 96 1016.2
20260507030003 56 116 2.0 4.0 0.02 0.30 0.18 96 1016.3
20260507025214 56 127 2.0 4.0 0.02 0.30 0.18 96 1016.2
20260507024003 56 109 3.0 6.0 0.01 0.29 0.17 96 1016.5
20260507023003 56 114 3.0 7.0 0.01 0.29 0.17 95 1016.4
20260507022003 56 133 3.0 6.0 0.02 0.29 0.17 95 1016.3
20260507021003 56 109 3.0 7.0 0.02 0.29 0.17 95 1016.3
20260507020214 56 82 2.0 5.0 0.01 0.28 0.17 95 1016.3
20260507015008 56 53 2.0 3.0 0.02 0.28 0.17 95 1016.4
20260507014003 56 51 2.0 3.0 0.02 0.28 0.17 95 1016.3
20260507013003 56 35 1.0 3.0 0.04 0.28 0.17 95 1016.3
20260507012212 56 53 1.0 2.0 0.07 0.28 0.16 95 1016.3
20260507010004 56 246 0.0 1.0 0.13 0.28 0.16 95 1016.4
20260507005003 56 243 1.0 2.0 0.15 0.28 0.15 95 1016.5
20260507004003 56 242 2.0 5.0 0.14 0.28 0.14 94 1016.5
20260507003004 57 256 4.0 6.0 0.13 0.26 0.13 93 1016.6
20260507002004 57 260 3.0 7.0 0.08 0.21 0.08 92 1016.4
20260507001003 58 257 4.0 6.0 0.05 0.18 0.05 91 1016.4
20260507000004 58 254 4.0 8.0 0.02 0.16 0.02 90 1016.4
20260506235003 58 256 3.0 5.0 0.00 0.13 0.00 89 1016.4
20260506234004 59 249 3.0 7.0 0.00 0.13 0.00 89 1016.4
20260506233004 59 256 3.0 6.0 0.00 0.13 0.00 88 1016.2
20260506232003 59 227 2.0 7.0 0.00 0.13 0.00 86 1016.2
20260506230004 59 248 2.0 4.0 0.00 0.13 0.00 88 1016.1
20260506225216 59 241 1.0 4.0 0.01 0.13 0.00 88 1016.0
20260506224003 59 238 2.0 4.0 0.02 0.13 0.00 90 1016.0
20260506223003 59 260 1.0 3.0 0.02 0.13 0.00 89 1016.2
20260506222003 60 253 0.0 3.0 0.03 0.13 0.00 87 1016.2
20260506221215 60 157 2.0 4.0 0.04 0.13 0.00 85 1016.1
20260506220006 60 146 3.0 6.0 0.05 0.13 0.00 84 1016.0
20260506215217 60 152 3.0 7.0 0.05 0.13 0.13 84 1016.2
20260506214003 60 154 2.0 6.0 0.04 0.12 0.12 85 1016.3
20260506213003 60 215 2.0 5.0 0.04 0.11 0.11 86 1016.5
20260506212003 60 257 2.0 4.0 0.03 0.10 0.10 86 1016.5
20260506211004 61 207 3.0 5.0 0.02 0.09 0.09 83 1016.5
20260506210004 61 160 3.0 6.0 0.02 0.09 0.09 81 1016.5
20260506205003 62 151 3.0 7.0 0.01 0.08 0.08 81 1016.5
20260506204003 62 137 4.0 8.0 0.01 0.08 0.08 80 1016.6
20260506203004 62 150 4.0 7.0 0.00 0.07 0.07 79 1016.5
20260506202215 62 146 3.0 7.0 0.00 0.07 0.07 78 1016.6
20260506201003 62 145 4.0 7.0 0.00 0.07 0.07 78 1016.4
20260506200004 62 135 3.0 7.0 0.00 0.07 0.07 78 1016.4
20260506195003 62 126 2.0 5.0 0.00 0.07 0.07 79 1016.3
20260506194004 62 120 2.0 4.0 0.00 0.07 0.07 81 1016.3
20260506193215 62 110 1.0 6.0 0.00 0.07 0.07 84 1016.3
20260506192004 61 89 1.0 4.0 0.00 0.07 0.07 88 1016.2
20260506191003 61 112 1.0 3.0 0.00 0.07 0.07 89 1016.3
20260506190004 60 70 0.0 3.0 0.00 0.07 0.07 91 1016.1
20260506185004 61 82 0.0 1.0 0.00 0.07 0.07 89 1016.1
20260506184004 61 129 0.0 1.0 0.02 0.07 0.07 89 1015.9
20260506183004 61 127 0.0 1.0 0.02 0.07 0.07 89 1015.8
20260506182216 61 253 1.0 2.0 0.02 0.07 0.07 88 1015.8
20260506181003 61 241 2.0 4.0 0.02 0.07 0.07 87 1015.8
20260506180005 61 233 3.0 5.0 0.02 0.07 0.07 86 1015.8
20260506175004 62 230 3.0 8.0 0.02 0.07 0.07 85 1015.6
20260506174004 63 214 4.0 7.0 0.01 0.06 0.06 82 1015.6
20260506173003 63 224 5.0 12.0 0.00 0.05 0.05 81 1015.5
20260506172003 63 228 4.0 9.0 0.00 0.05 0.05 81 1015.4
20260506171003 63 226 3.0 12.0 0.00 0.05 0.05 81 1015.5
20260506170214 63 232 2.0 7.0 0.00 0.05 0.05 81 1015.4
20260506165004 63 228 3.0 5.0 0.00 0.05 0.05 82 1015.6
20260506164003 63 231 4.0 9.0 0.00 0.05 0.05 80 1015.5
20260506163003 65 221 3.0 10.0 0.00 0.05 0.05 77 1015.6
20260506162004 66 175 3.0 11.0 0.00 0.05 0.05 72 1015.4
20260506161004 66 173 2.0 6.0 0.00 0.05 0.05 71 1015.4
20260506160003 66 200 3.0 8.0 0.00 0.05 0.05 71 1015.5
20260506155216 66 213 4.0 9.0 0.00 0.05 0.05 71 1015.6
20260506154003 66 229 3.0 11.0 0.00 0.05 0.05 70 1015.5
20260506153004 66 224 4.0 9.0 0.00 0.05 0.05 69 1015.6
20260506152213 66 227 4.0 11.0 0.00 0.05 0.05 69 1015.5
20260506151004 67 229 5.0 13.0 0.00 0.05 0.05 70 1015.4
20260506150004 67 217 5.0 12.0 0.00 0.05 0.05 69 1015.5
20260506145003 67 219 5.0 11.0 0.00 0.05 0.05 70 1015.6
20260506144004 67 229 6.0 16.0 0.00 0.05 0.05 70 1015.5
20260506143213 67 229 6.0 15.0 0.00 0.05 0.05 69 1015.6
20260506142003 67 227 5.0 18.0 0.00 0.05 0.05 68 1015.6
20260506141003 68 232 5.0 11.0 0.00 0.05 0.05 68 1015.5
20260506140003 68 231 5.0 15.0 0.00 0.05 0.05 68 1015.5
20260506135004 68 232 5.0 14.0 0.00 0.05 0.05 66 1015.4
20260506134003 69 225 6.0 14.0 0.00 0.05 0.05 66 1015.5
20260506133004 69 231 5.0 14.0 0.00 0.05 0.05 64 1015.5
20260506132003 69 233 5.0 11.0 0.00 0.05 0.05 64 1015.5
20260506131003 70 231 5.0 12.0 0.00 0.05 0.05 63 1015.7
20260506130004 70 231 4.0 12.0 0.00 0.05 0.05 62 1015.6
20260506125003 70 221 5.0 12.0 0.00 0.05 0.05 63 1015.7
20260506124004 71 228 5.0 13.0 0.00 0.05 0.05 59 1015.8
20260506123003 71 232 5.0 12.0 0.00 0.05 0.05 58 1015.8
20260506122003 72 210 4.0 13.0 0.00 0.05 0.05 56 1015.8
20260506121004 72 173 4.0 12.0 0.00 0.05 0.05 55 1015.7
20260506120217 72 169 4.0 11.0 0.00 0.05 0.05 53 1015.8
20260506115003 72 216 5.0 12.0 0.00 0.05 0.05 53 1016.0